Time,TemperatureF,DewpointF,PressureIn,WindDirection,WindDirectionDegrees,WindSpeedMPH,WindSpeedGustMPH,Humidity,HourlyPrecipIn,Conditions,Clouds,dailyrainin,SoftwareType,DateUTC
2013-04-21 00:01:00,74.0,33.0,29.85,SSE,156,0.0,3.0,22,0.00,,,0.00,,2013-04-21 07:01:00,
2013-04-21 00:11:00,74.0,33.0,29.85,SE,129,0.0,3.0,22,0.00,,,0.00,,2013-04-21 07:11:00,
2013-04-21 00:21:00,74.0,33.0,29.85,SE,129,0.0,3.0,22,0.00,,,0.00,,2013-04-21 07:21:00,
2013-04-21 00:31:00,74.0,33.0,29.85,SE,129,0.0,0.0,22,0.00,,,0.00,,2013-04-21 07:31:00,
2013-04-21 00:41:00,74.0,33.0,29.85,SE,129,0.0,0.0,22,0.00,,,0.00,,2013-04-21 07:41:00,
2013-04-21 00:51:00,73.0,32.0,29.85,SE,129,0.0,0.0,22,0.00,,,0.00,,2013-04-21 07:51:00,
2013-04-21 01:01:00,72.0,32.0,29.85,SE,129,0.0,0.0,23,0.00,,,0.00,,2013-04-21 08:01:00,
2013-04-21 01:11:00,71.0,31.0,29.85,SE,129,0.0,0.0,23,0.00,,,0.00,,2013-04-21 08:11:00,
2013-04-21 01:21:00,71.0,31.0,29.85,SE,129,0.0,0.0,23,0.00,,,0.00,,2013-04-21 08:21:00,
2013-04-21 01:32:00,69.0,30.0,29.85,SE,129,0.0,0.0,23,0.00,,,0.00,,2013-04-21 08:32:00,
2013-04-21 01:41:00,69.0,30.0,29.85,SE,129,0.0,0.0,23,0.00,,,0.00,,2013-04-21 08:41:00,
2013-04-21 01:52:00,69.0,31.0,29.85,SE,129,0.0,0.0,24,0.00,,,0.00,,2013-04-21 08:52:00,
2013-04-21 02:01:00,69.0,31.0,29.84,SE,129,0.0,0.0,24,0.00,,,0.00,,2013-04-21 09:01:00,
2013-04-21 02:11:00,69.0,31.0,29.84,SE,129,0.0,0.0,24,0.00,,,0.00,,2013-04-21 09:11:00,
2013-04-21 02:21:00,69.0,31.0,29.84,SE,129,0.0,0.0,24,0.00,,,0.00,,2013-04-21 09:21:00,
2013-04-21 02:32:00,67.0,30.0,29.84,SE,129,0.0,0.0,25,0.00,,,0.00,,2013-04-21 09:32:00,
2013-04-21 02:42:00,67.0,30.0,29.84,SE,129,0.0,0.0,25,0.00,,,0.00,,2013-04-21 09:42:00,
2013-04-21 02:52:00,67.0,30.0,29.83,SE,129,0.0,0.0,25,0.00,,,0.00,,2013-04-21 09:52:00,
2013-04-21 03:02:00,67.0,29.0,29.83,SE,129,0.0,0.0,24,0.00,,,0.00,,2013-04-21 10:02:00,
2013-04-21 03:12:00,66.0,29.0,29.83,SE,129,0.0,0.0,25,0.00,,,0.00,,2013-04-21 10:12:00,
2013-04-21 03:22:00,66.0,29.0,29.83,SE,129,0.0,0.0,25,0.00,,,0.00,,2013-04-21 10:22:00,
2013-04-21 03:32:00,66.0,29.0,29.84,SE,129,0.0,0.0,25,0.00,,,0.00,,2013-04-21 10:32:00,
2013-04-21 03:42:00,66.0,29.0,29.84,SE,129,0.0,0.0,25,0.00,,,0.00,,2013-04-21 10:42:00,
2013-04-21 03:52:00,66.0,30.0,29.84,SE,129,0.0,0.0,26,0.00,,,0.00,,2013-04-21 10:52:00,
2013-04-21 04:02:00,65.0,29.0,29.84,SE,129,0.0,0.0,26,0.00,,,0.00,,2013-04-21 11:02:00,
2013-04-21 04:11:00,65.0,29.0,29.84,SE,129,0.0,0.0,26,0.00,,,0.00,,2013-04-21 11:11:00,
2013-04-21 04:21:00,64.0,28.0,29.84,SE,129,0.0,0.0,26,0.00,,,0.00,,2013-04-21 11:21:00,
2013-04-21 04:33:00,63.0,29.0,29.84,SE,129,0.0,0.0,27,0.00,,,0.00,,2013-04-21 11:33:00,
2013-04-21 04:42:00,63.0,29.0,29.84,SE,129,0.0,0.0,27,0.00,,,0.00,,2013-04-21 11:42:00,
2013-04-21 04:51:00,63.0,29.0,29.84,SE,129,0.0,0.0,27,0.00,,,0.00,,2013-04-21 11:51:00,
2013-04-21 05:02:00,63.0,29.0,29.84,SE,129,0.0,0.0,27,0.00,,,0.00,,2013-04-21 12:02:00,
2013-04-21 05:12:00,62.0,29.0,29.84,SE,129,0.0,0.0,29,0.00,,,0.00,,2013-04-21 12:12:00,
2013-04-21 05:22:00,62.0,29.0,29.84,SE,129,0.0,0.0,29,0.00,,,0.00,,2013-04-21 12:22:00,
2013-04-21 05:31:00,61.0,29.0,29.84,SE,129,0.0,0.0,29,0.00,,,0.00,,2013-04-21 12:31:00,
2013-04-21 05:42:00,61.0,29.0,29.84,SE,129,0.0,0.0,29,0.00,,,0.00,,2013-04-21 12:42:00,
2013-04-21 05:51:00,61.0,29.0,29.84,SE,129,0.0,0.0,29,0.00,,,0.00,,2013-04-21 12:51:00,
2013-04-21 06:01:00,61.0,29.0,29.85,SE,129,0.0,0.0,29,0.00,,,0.00,,2013-04-21 13:01:00,
2013-04-21 06:11:00,61.0,31.0,29.85,SE,129,0.0,0.0,32,0.00,,,0.00,,2013-04-21 13:11:00,
2013-04-21 06:21:00,61.0,31.0,29.85,SE,129,0.0,0.0,32,0.00,,,0.00,,2013-04-21 13:21:00,
2013-04-21 06:32:00,61.0,31.0,29.86,SE,129,0.0,0.0,32,0.00,,,0.00,,2013-04-21 13:32:00,
2013-04-21 06:42:00,61.0,31.0,29.86,SE,129,0.0,0.0,32,0.00,,,0.00,,2013-04-21 13:42:00,
2013-04-21 06:52:00,61.0,30.0,29.86,SE,129,0.0,0.0,31,0.00,,,0.00,,2013-04-21 13:52:00,
2013-04-21 07:01:00,62.0,32.0,29.87,SE,129,0.0,0.0,32,0.00,,,0.00,,2013-04-21 14:01:00,
2013-04-21 07:11:00,62.0,32.0,29.87,SE,129,0.0,0.0,32,0.00,,,0.00,,2013-04-21 14:11:00,
2013-04-21 07:21:00,62.0,31.0,29.87,SE,129,0.0,0.0,31,0.00,,,0.00,,2013-04-21 14:21:00,
2013-04-21 07:31:00,65.0,32.0,29.88,SE,129,0.0,0.0,29,0.00,,,0.00,,2013-04-21 14:31:00,
2013-04-21 07:42:00,65.0,32.0,29.88,SE,129,0.0,0.0,29,0.00,,,0.00,,2013-04-21 14:42:00,
2013-04-21 07:52:00,66.0,32.0,29.88,SE,129,0.0,0.0,28,0.00,,,0.00,,2013-04-21 14:52:00,
2013-04-21 08:01:00,68.0,36.0,29.88,SE,129,0.0,0.0,31,0.00,,,0.00,,2013-04-21 15:01:00,
2013-04-21 08:11:00,68.0,36.0,29.88,SE,129,0.0,0.0,31,0.00,,,0.00,,2013-04-21 15:11:00,
2013-04-21 08:22:00,69.0,38.0,29.89,East,90,0.0,1.0,32,0.00,,,0.00,,2013-04-21 15:22:00,
2013-04-21 08:33:00,71.0,42.0,29.89,East,90,0.0,0.0,35,0.00,,,0.00,,2013-04-21 15:33:00,
2013-04-21 08:42:00,71.0,42.0,29.89,East,90,0.0,0.0,35,0.00,,,0.00,,2013-04-21 15:42:00,
2013-04-21 08:53:00,72.0,42.0,29.89,East,90,0.0,0.0,34,0.00,,,0.00,,2013-04-21 15:53:00,
2013-04-21 09:03:00,74.0,40.0,29.90,NNE,26,0.0,0.0,29,0.00,,,0.00,,2013-04-21 16:03:00,
2013-04-21 09:12:00,76.0,40.0,29.90,NNE,26,0.0,1.0,27,0.00,,,0.00,,2013-04-21 16:12:00,
2013-04-21 09:22:00,76.0,40.0,29.90,NNE,26,0.0,1.0,27,0.00,,,0.00,,2013-04-21 16:22:00,
2013-04-21 09:32:00,79.0,40.0,29.91,North,355,0.0,1.0,25,0.00,,,0.00,,2013-04-21 16:32:00,
2013-04-21 09:42:00,79.0,40.0,29.91,North,355,0.0,1.0,25,0.00,,,0.00,,2013-04-21 16:42:00,
2013-04-21 09:52:00,81.0,40.0,29.91,NW,309,0.0,1.0,23,0.00,,,0.00,,2013-04-21 16:52:00,
2013-04-21 10:01:00,84.0,39.0,29.91,WSW,257,1.0,3.0,20,0.00,,,0.00,,2013-04-21 17:01:00,
2013-04-21 10:11:00,86.0,33.0,29.91,SSW,209,5.0,6.0,15,0.00,,,0.00,,2013-04-21 17:11:00,
2013-04-21 10:22:00,86.0,33.0,29.91,SSW,209,5.0,6.0,15,0.00,,,0.00,,2013-04-21 17:22:00,
2013-04-21 10:32:00,88.0,33.0,29.91,WSW,252,1.0,7.0,14,0.00,,,0.00,,2013-04-21 17:32:00,
2013-04-21 10:41:00,88.0,33.0,29.91,WSW,252,1.0,7.0,14,0.00,,,0.00,,2013-04-21 17:41:00,
2013-04-21 10:52:00,88.0,36.0,29.92,WSW,250,4.0,7.0,16,0.00,,,0.00,,2013-04-21 17:52:00,
2013-04-21 11:02:00,88.0,33.0,29.91,SSW,200,2.0,9.0,14,0.00,,,0.00,,2013-04-21 18:02:00,
2013-04-21 11:11:00,88.0,33.0,29.91,SSW,200,2.0,9.0,14,0.00,,,0.00,,2013-04-21 18:11:00,
2013-04-21 11:21:00,88.0,33.0,29.91,SSW,211,5.0,10.0,14,0.00,,,0.00,,2013-04-21 18:21:00,
2013-04-21 11:32:00,90.0,33.0,29.91,WSW,241,3.0,9.0,13,0.00,,,0.00,,2013-04-21 18:32:00,
2013-04-21 11:42:00,90.0,33.0,29.91,WSW,241,3.0,9.0,13,0.00,,,0.00,,2013-04-21 18:42:00,
2013-04-21 11:52:00,90.0,33.0,29.90,SSW,197,3.0,10.0,13,0.00,,,0.00,,2013-04-21 18:52:00,
2013-04-21 12:02:00,92.0,32.0,29.90,SSW,211,5.0,10.0,12,0.00,,,0.00,,2013-04-21 19:02:00,
2013-04-21 12:11:00,92.0,32.0,29.90,SSW,211,5.0,10.0,12,0.00,,,0.00,,2013-04-21 19:11:00,
2013-04-21 12:21:00,92.0,32.0,29.90,SSW,207,2.0,9.0,12,0.00,,,0.00,,2013-04-21 19:21:00,
2013-04-21 12:31:00,93.0,33.0,29.89,South,180,2.0,9.0,12,0.00,,,0.00,,2013-04-21 19:31:00,
2013-04-21 13:01:00,94.0,34.0,29.88,SSW,192,3.0,12.0,12,0.00,,,0.00,,2013-04-21 20:01:00,
2013-04-21 13:21:00,95.0,34.0,29.87,SW,216,5.0,12.0,12,0.00,,,0.00,,2013-04-21 20:21:00,
2013-04-21 13:31:00,95.0,34.0,29.86,SSE,159,1.0,9.0,12,0.00,,,0.00,,2013-04-21 20:31:00,
2013-04-21 13:51:00,96.0,35.0,29.86,South,183,5.0,13.0,12,0.00,,,0.00,,2013-04-21 20:51:00,
2013-04-21 14:02:00,96.0,35.0,29.85,SE,142,3.0,12.0,12,0.00,,,0.00,,2013-04-21 21:02:00,
2013-04-21 14:12:00,96.0,35.0,29.85,SSW,202,3.0,12.0,12,0.00,,,0.00,,2013-04-21 21:12:00,
2013-04-21 14:32:00,96.0,35.0,29.84,SSE,155,1.0,9.0,12,0.00,,,0.00,,2013-04-21 21:32:00,
2013-04-21 14:53:00,97.0,36.0,29.83,South,184,2.0,16.0,12,0.00,,,0.00,,2013-04-21 21:53:00,
2013-04-21 15:02:00,97.0,36.0,29.83,SSW,205,4.0,13.0,12,0.00,,,0.00,,2013-04-21 22:02:00,
2013-04-21 15:12:00,97.0,36.0,29.82,SW,222,1.0,13.0,12,0.00,,,0.00,,2013-04-21 22:12:00,
2013-04-21 15:22:00,97.0,36.0,29.82,SW,222,1.0,13.0,12,0.00,,,0.00,,2013-04-21 22:22:00,
2013-04-21 15:32:00,97.0,36.0,29.81,SSE,155,2.0,12.0,12,0.00,,,0.00,,2013-04-21 22:32:00,
2013-04-21 15:52:00,98.0,37.0,29.81,SSE,162,7.0,13.0,12,0.00,,,0.00,,2013-04-21 22:52:00,
2013-04-21 16:02:00,97.0,34.0,29.80,SSW,202,3.0,13.0,11,0.00,,,0.00,,2013-04-21 23:02:00,
2013-04-21 16:22:00,98.0,35.0,29.80,South,177,2.0,9.0,11,0.00,,,0.00,,2013-04-21 23:22:00,
2013-04-21 16:32:00,98.0,35.0,29.79,East,90,2.0,12.0,11,0.00,,,0.00,,2013-04-21 23:32:00,
2013-04-21 16:52:00,97.0,34.0,29.79,SSW,209,2.0,7.0,11,0.00,,,0.00,,2013-04-21 23:52:00,
2013-04-21 17:01:00,97.0,31.0,29.79,SSE,161,1.0,9.0,10,0.00,,,0.00,,2013-04-22 00:01:00,
2013-04-21 17:11:00,97.0,31.0,29.79,SSE,161,1.0,9.0,10,0.00,,,0.00,,2013-04-22 00:11:00,
2013-04-21 17:21:00,97.0,31.0,29.79,SSW,197,1.0,6.0,10,0.00,,,0.00,,2013-04-22 00:21:00,
2013-04-21 17:31:00,96.0,31.0,29.79,South,190,1.0,14.0,10,0.00,,,0.00,,2013-04-22 00:31:00,
2013-04-21 18:01:00,95.0,32.0,29.78,SSW,206,1.0,9.0,11,0.00,,,0.00,,2013-04-22 01:01:00,
2013-04-21 18:32:00,94.0,31.0,29.78,SSE,154,1.0,7.0,11,0.00,,,0.00,,2013-04-22 01:32:00,
2013-04-21 18:51:00,94.0,31.0,29.78,South,176,0.0,9.0,11,0.00,,,0.00,,2013-04-22 01:51:00,
2013-04-21 19:01:00,93.0,31.0,29.78,SSE,165,1.0,6.0,11,0.00,,,0.00,,2013-04-22 02:01:00,
2013-04-21 19:11:00,92.0,30.0,29.78,SSE,168,4.0,9.0,11,0.00,,,0.00,,2013-04-22 02:11:00,
2013-04-21 19:31:00,90.0,28.0,29.78,SE,142,2.0,7.0,11,0.00,,,0.00,,2013-04-22 02:31:00,
2013-04-21 19:41:00,90.0,28.0,29.78,SE,142,2.0,7.0,11,0.00,,,0.00,,2013-04-22 02:41:00,
2013-04-21 19:51:00,90.0,31.0,29.78,South,176,2.0,6.0,12,0.00,,,0.00,,2013-04-22 02:51:00,
2013-04-21 20:02:00,88.0,29.0,29.79,South,189,2.0,6.0,12,0.00,,,0.00,,2013-04-22 03:02:00,
2013-04-21 20:11:00,88.0,29.0,29.79,South,189,2.0,6.0,12,0.00,,,0.00,,2013-04-22 03:11:00,
2013-04-21 20:22:00,88.0,29.0,29.79,South,188,2.0,7.0,12,0.00,,,0.00,,2013-04-22 03:22:00,
2013-04-21 20:33:00,87.0,28.0,29.80,SSE,147,2.0,7.0,12,0.00,,,0.00,,2013-04-22 03:33:00,
2013-04-21 20:42:00,87.0,28.0,29.80,SSE,147,2.0,7.0,12,0.00,,,0.00,,2013-04-22 03:42:00,
2013-04-21 20:52:00,85.0,29.0,29.80,SSE,166,1.0,3.0,13,0.00,,,0.00,,2013-04-22 03:52:00,
2013-04-21 21:02:00,84.0,28.0,29.81,SE,143,2.0,3.0,13,0.00,,,0.00,,2013-04-22 04:02:00,
2013-04-21 21:12:00,84.0,28.0,29.81,SE,143,2.0,3.0,13,0.00,,,0.00,,2013-04-22 04:12:00,
2013-04-21 21:23:00,83.0,27.0,29.82,SSE,153,1.0,3.0,13,0.00,,,0.00,,2013-04-22 04:23:00,
2013-04-21 21:32:00,82.0,28.0,29.82,SSE,150,1.0,5.0,14,0.00,,,0.00,,2013-04-22 04:32:00,
2013-04-21 21:43:00,82.0,28.0,29.82,SSE,150,1.0,5.0,14,0.00,,,0.00,,2013-04-22 04:43:00,
2013-04-21 21:52:00,82.0,28.0,29.83,SSE,160,1.0,5.0,14,0.00,,,0.00,,2013-04-22 04:52:00,
2013-04-21 22:02:00,80.0,27.0,29.83,SSE,153,1.0,3.0,14,0.00,,,0.00,,2013-04-22 05:02:00,
2013-04-21 22:11:00,80.0,27.0,29.83,SSE,158,0.0,3.0,14,0.00,,,0.00,,2013-04-22 05:11:00,
2013-04-21 22:22:00,80.0,27.0,29.83,SSE,158,0.0,3.0,14,0.00,,,0.00,,2013-04-22 05:22:00,
2013-04-21 22:32:00,79.0,27.0,29.83,SSE,153,0.0,2.0,15,0.00,,,0.00,,2013-04-22 05:32:00,
2013-04-21 22:42:00,79.0,27.0,29.83,SSE,153,0.0,2.0,15,0.00,,,0.00,,2013-04-22 05:42:00,
2013-04-21 22:52:00,79.0,29.0,29.83,SSE,149,0.0,3.0,16,0.00,,,0.00,,2013-04-22 05:52:00,
2013-04-21 23:02:00,79.0,30.0,29.82,SE,132,0.0,3.0,17,0.00,,,0.00,,2013-04-22 06:02:00,
2013-04-21 23:11:00,79.0,30.0,29.82,SE,132,0.0,3.0,17,0.00,,,0.00,,2013-04-22 06:11:00,
2013-04-21 23:21:00,79.0,30.0,29.82,SSE,156,0.0,3.0,17,0.00,,,0.00,,2013-04-22 06:21:00,
2013-04-21 23:32:00,78.0,30.0,29.83,SSE,156,0.0,0.0,17,0.00,,,0.00,,2013-04-22 06:32:00,
2013-04-21 23:41:00,78.0,30.0,29.83,SSE,156,0.0,0.0,17,0.00,,,0.00,,2013-04-22 06:41:00,
2013-04-21 23:51:00,78.0,31.0,29.83,SSE,156,0.0,0.0,18,0.00,,,0.00,,2013-04-22 06:51:00,